Snowfall_Accumulation
0.0 0.0 0.0 0.0 0.0 0.0 0.0 0.0 5.2 0.0 0.0 0.1 6.4 5.3 1.2 0.0 0.0 0.0 0.0 0.0 0.3 0.8 0.4 0.9 3.3 4.3 0.5 0.0 0.0 0.1 0.0 3.3 8.9 3.1 0.0 0.0 0.0 0.4 0.5 9.5 4.7 2.9 6.4 9.2
0.0 0.0 0.0 0.0 0.0 0.0 0.0 0.0 0.5 0.0 0.0 9.1 4.7 0.0 0.8 1.1 0.0 0.0 0.0 0.2 0.0 0.0 1.0 1.8 0.1 1.5 0.0 0.0 0.0 0.3 0.0 4.0 9.3 5.3 1.5 0.0 2.2 0.6 0.7 1.7 4.0 6.8 9.5 9.6
0.0 0.0 0.0 0.0 0.0 0.0 0.0 0.0 7.6 0.0 0.0 0.0 1.6 3.0 3.5 0.8 0.0 0.0 0.1 0.2 0.0 0.7 0.1 0.0 1.2 4.7 0.0 0.0 0.0 0.0 0.1 2.7 7.3 8.1 3.2 1.3 5.6 1.5 2.3 7.1 11.8 2.1 7.8 4.4
0.0 0.0 0.0 0.0 0.0 0.0 0.0 0.0 3.2 0.1 3.1 1.3 0.0 0.0 0.8 0.6 1.0 0.0 0.0 0.0 0.6 3.9 2.9 0.3 0.1 1.9 1.1 0.0 0.0 0.0 0.6 8.7 3.6 2.0 0.5 1.0 2.3 2.4 2.3 5.7 2.0 4.5 1.2 0.9
0.0 0.0 0.0 0.0 0.0 0.0 0.0 1.0 1.5 0.6 0.1 0.0 0.0 0.0 0.3 0.2 0.0 0.1 0.4 0.1 0.1 1.4 2.8 2.3 1.7 0.5 2.0 2.1 0.0 0.0 0.1 5.6 3.8 3.8 0.0 0.7 2.7 0.2 0.6 0.3 0.0 0.1 0.0 0.1
0.0 0.0 0.0 0.0 0.0 0.0 0.0 0.0 0.1 2.2 0.5 0.4 1.4 0.3 0.0 0.0 0.1 0.0 0.0 0.0 1.0 0.7 0.2 0.0 0.0 0.0 0.0 0.1 0.1 0.0 0.0 2.8 4.3 5.3 0.8 0.3 3.0 1.1 0.1 0.0 0.0 0.0 1.2 0.0
0.0 0.0 0.0 0.0 0.0 0.0 0.0 0.0 0.6 7.0 6.3 0.9 0.6 0.3 0.0 0.0 0.0 0.4 0.0 0.0 0.8 0.0 0.0 0.0 0.0 0.0 0.0 0.0 0.0 0.0 0.1 1.3 3.8 4.4 0.6 3.8 0.0 0.0 0.0 0.0 0.0 0.0 0.0 0.0
0.0 0.0 0.0 0.0 0.0 0.0 0.0 0.0 0.8 8.1 11.3 0.7 0.3 0.0 0.0 0.0 0.0 0.0 0.0 0.0 0.0 0.0 0.0 2.1 1.6 0.2 0.0 0.0 0.0 0.0 0.2 1.0 5.3 4.9 1.3 0.0 0.0 0.0 0.0 0.4 0.0 0.0 0.0 0.0
0.0 0.0 0.0 0.0 0.0 0.0 0.0 0.0 0.0 5.9 15.3 0.6 0.0 0.3 0.0 1.1 1.1 0.0 0.0 0.0 0.0 0.0 1.4 4.7 6.7 3.1 0.2 0.8 0.0 0.1 0.2 1.2 4.0 4.4 4.8 0.9 0.0 0.0 0.0 0.0 0.3 0.0 0.0 0.0
0.0 0.0 0.0 0.0 0.0 0.0 0.0 0.0 0.0 8.7 19.4 0.7 0.4 1.2 1.9 0.7 2.7 6.2 0.0 0.3 1.2 0.0 3.2 7.1 5.5 2.5 0.7 3.9 1.0 0.5 0.7 3.6 8.1 4.1 4.7 0.6 0.0 0.0 0.0 0.2 0.1 0.0 0.0 0.0
0.0 0.0 0.0 0.0 0.0 0.0 0.0 0.0 0.0 7.5 17.5 3.3 0.0 1.2 2.9 4.6 4.9 9.2 1.0 3.5 1.6 6.2 7.5 6.7 3.1 4.8 3.3 2.6 0.0 1.7 3.6 7.3 4.1 2.3 4.1 2.1 0.0 0.0 0.0 0.0 0.0 0.0 0.0 0.0
0.0 0.0 0.0 0.0 0.0 0.0 0.0 0.8 0.0 0.0 9.9 3.4 0.0 0.0 0.0 2.7 3.3 7.1 5.8 3.5 1.5 4.5 7.7 7.2 6.0 3.9 3.4 3.0 2.7 1.2 6.6 5.2 6.0 4.5 0.9 0.1 0.3 0.5 0.1 0.0 0.0 0.0 0.0 0.0
0.0 0.0 0.0 0.0 0.0 0.0 0.0 0.0 0.0 0.0 5.6 1.6 0.1 0.6 0.0 0.0 0.0 0.0 16.8 0.9 3.9 3.9 2.0 10.3 7.8 7.8 1.4 2.9 4.0 3.4 1.4 2.9 6.0 6.1 5.2 3.5 2.1 0.5 0.0 0.0 0.0 0.0 0.0 0.0
0.0 0.0 0.0 0.0 0.0 0.0 0.0 0.0 0.0 0.1 1.8 6.8 0.2 0.0 0.0 0.0 0.0 0.0 0.0 4.4 3.2 5.2 3.6 16.7 11.4 6.7 2.8 5.2 6.7 5.0 4.0 3.2 3.9 4.9 7.6 6.3 2.2 0.4 0.0 0.0 0.0 0.0 0.0 0.0
0.0 0.0 0.0 0.0 0.0 0.0 0.0 0.0 0.0 0.0 2.4 5.1 0.0 0.0 0.0 0.0 0.0 0.0 0.1 2.6 8.1 12.5 19.9 20.3 15.7 5.9 7.8 7.4 3.4 9.0 10.0 11.2 12.0 8.5 7.2 9.0 8.4 2.1 0.1 0.0 0.0 0.0 0.0 0.0
0.0 0.0 0.0 0.0 0.0 0.0 0.0 0.1 0.0 0.0 0.0 9.1 3.8 0.0 0.0 0.0 0.0 0.4 0.8 3.0 7.7 12.9 15.9 14.9 11.7 9.0 9.6 14.6 11.9 9.3 10.6 11.9 12.8 12.8 10.5 9.5 11.0 8.9 4.7 4.0 2.8 1.3 1.6 1.8
0.0 0.0 0.0 0.0 0.0 0.0 0.4 0.1 0.0 0.0 0.0 8.3 6.9 0.7 0.0 0.0 0.3 1.3 1.9 2.8 6.1 8.6 8.6 12.4 7.5 8.3 6.5 11.6 17.4 17.1 16.0 17.8 15.4 13.8 8.3 12.6 11.9 15.1 9.0 6.9 6.8 3.2 4.1 3.8
0.0 0.0 0.0 0.0 0.0 0.0 0.0 0.0 0.0 0.0 0.0 3.0 17.2 2.9 0.1 0.9 3.3 5.2 1.6 4.5 2.1 6.0 7.6 6.9 6.5 4.6 5.9 16.5 16.4 15.0 13.3 9.4 11.0 13.4 11.5 13.2 9.9 8.0 8.5 7.0 4.5 3.1 4.6 3.9
0.0 0.0 0.0 0.0 0.0 0.4 0.0 0.0 0.0 0.0 0.2 16.0 8.3 4.8 3.8 0.4 1.3 2.0 3.8 3.2 12.8 5.6 9.7 5.8 3.9 10.2 20.0 19.2 15.2 13.8 13.3 13.7 16.1 8.7 7.2 5.1 5.7 6.5 6.2 3.8 2.8 2.4 3.4 2.0
0.0 0.0 0.0 2.9 0.1 0.0 0.0 0.0 3.4 7.4 7.8 8.5 5.2 0.7 5.4 1.9 2.0 3.5 6.4 7.0 9.1 18.0 8.0 2.1 10.2 15.9 12.4 12.8 12.8 11.5 9.3 7.3 5.0 3.1 5.1 2.8 2.5 1.2 0.6 0.4 0.1 0.1 0.0 0.0
0.0 1.6 1.7 0.0 0.0 0.0 2.7 10.8 12.2 9.4 17.3 6.4 3.6 2.4 4.3 0.8 11.2 8.9 7.5 14.7 7.2 13.8 7.3 6.2 8.4 10.9 12.2 9.3 7.2 4.6 3.3 2.2 1.4 0.6 1.1 0.2 0.1 0.0 0.0 0.0 0.0 0.0 0.0 0.1
0.0 0.0 0.0 0.4 4.2 6.9 11.5 10.4 6.5 9.2 10.1 3.9 3.4 1.6 2.8 5.4 5.6 13.2 12.5 14.1 14.0 14.3 3.2 10.3 11.2 13.3 10.0 7.3 4.6 2.3 0.5 0.4 0.1 0.1 0.0 0.0 0.1 0.0 0.0 0.1 0.1 0.4 0.4 0.2
0.6 2.0 10.2 8.3 8.6 16.4 11.4 3.3 4.6 8.5 7.0 4.4 3.4 5.8 2.4 4.2 7.8 13.8 18.6 25.1 19.7 7.8 17.6 13.7 14.7 11.6 7.1 5.2 2.2 0.8 0.6 0.3 0.4 0.4 0.3 0.1 0.1 0.1 0.1 0.1 0.1 0.1 0.0 0.0
6.0 24.9 25.6 10.2 9.3 5.0 5.0 4.7 4.3 2.3 2.7 2.5 4.2 4.9 5.4 3.4 9.7 11.4 17.9 12.3 9.9 15.2 12.4 13.9 13.2 8.7 4.6 1.6 1.5 1.4 1.1 0.4 0.6 0.6 0.5 0.3 0.1 0.0 0.0 0.0 0.0 0.0 0.0 0.0
23.6 18.3 14.7 4.1 1.2 1.0 1.5 1.8 2.4 1.5 1.9 4.6 3.3 2.9 3.9 4.7 8.6 7.3 10.3 13.1 9.7 9.6 15.9 13.6 8.8 6.3 4.2 1.9 2.5 3.1 5.1 3.8 3.6 2.2 1.9 1.8 1.4 1.1 0.7 0.4 0.2 0.1 0.1 0.1
24.3 16.5 6.5 0.4 0.5 0.4 0.4 0.7 1.0 0.1 1.1 1.4 2.3 5.5 6.7 6.1 6.5 8.5 6.3 6.4 13.0 16.6 12.3 5.5 0.7 1.7 2.0 1.2 1.6 2.7 4.1 4.8 5.5 3.4 2.4 1.7 2.3 2.1 1.9 1.3 1.2 1.1 0.9 0.8
28.6 8.5 0.0 0.5 0.6 0.7 0.7 0.2 0.2 0.1 1.9 4.5 7.8 11.9 5.1 7.1 8.1 6.8 5.2 11.6 11.8 7.1 3.3 1.1 0.8 0.6 0.4 0.4 0.2 0.8 1.1 1.1 1.2 0.8 0.9 0.7 0.3 0.4 0.6 0.9 1.7 1.4 1.2 0.6